Hourly Data Report for October 06, 2015

All times are specified in Local Standard Time (LST). Add 1 hour to adjust for Daylight Saving Time where and when it is observed.

FREDERICTON
NEW BRUNSWICK

45°52'08.000" N
66°32'14.000" W
20.70 m
8101505
71700
YFC

Download Data

Hourly Data (October 2015)
Hourly Data Report for October 6, 2015
Temp Definition
°C
Dew Point Temp Definition
°C
Rel Hum Definition
%
Wind Dir Definition
10's deg

Wind Spd Definition
km/h
Visibility Definition
km
Stn Press Definition
kPa
Hmdx Definition


Wind Chill Definition


Weather Definition


TIME
00:00 Legend Double Dagger 4.9 4.5 97 LegendMM 4 16.1 101.61     LegendNANA
01:00 Legend Double Dagger 5.2 4.8 97   0 16.1 101.55     LegendNANA
02:00 Legend Double Dagger 4.4 4.1 98 20 5 16.1 101.52     LegendNANA
03:00 Legend Double Dagger 4.2 4.1 99 31 4 1.2 101.49     Fog
04:00 Legend Double Dagger 3.5 3.4 99 LegendMM 4 0.6 101.43     Fog
05:00 Legend Double Dagger 2.9 2.8 99 LegendMM 4 0.4 101.39     Fog
06:00 Legend Double Dagger 2.8 2.8 100 18 9 0.4 101.37     Fog
07:00 Legend Double Dagger 2.7 2.7 100 23 8 0.2 101.35     Fog
08:00 Legend Double Dagger 4.2 4.1 99 21 4 0.2 101.34     Fog
09:00 Legend Double Dagger 6.2 6.1 99   0 4.8 101.33     Fog
10:00 Legend Double Dagger 9.3 7.5 89 LegendMM 4 16.1 101.25     LegendNANA
11:00 Legend Double Dagger 13.2 7.7 69 LegendMM 8 16.1 101.20     LegendNANA
12:00 Legend Double Dagger 16.1 7.8 58 LegendMM 5 16.1 101.15     LegendNANA
13:00 Legend Double Dagger 17.4 7.3 51 LegendMM 4 16.1 101.05     LegendNANA
14:00 Legend Double Dagger 18.6 6.9 46 LegendMM 5 16.1 100.97     LegendNANA
15:00 Legend Double Dagger 19.1 5.4 40 30 11 16.1 100.90     LegendNANA
16:00 Legend Double Dagger 19.0 5.4 41 32 9 16.1 100.87     LegendNANA
17:00 Legend Double Dagger 17.9 5.3 43 30 5 16.1 100.84     LegendNANA
18:00 Legend Double Dagger 13.9 9.8 76 LegendMM 4 16.1 100.85     LegendNANA
19:00 Legend Double Dagger 12.0 8.4 79 30 5 16.1 100.87     LegendNANA
20:00 Legend Double Dagger 8.4 7.3 93   0 16.1 100.84     LegendNANA
21:00 Legend Double Dagger 10.2 6.8 79 32 11 16.1 100.87     LegendNANA
22:00 Legend Double Dagger 9.1 6.1 81 LegendMM 4 16.1 100.87     LegendNANA
23:00 Legend Double Dagger 9.0 6.2 82 LegendMM 4 16.1 100.85     LegendNANA

Notes on Data Quality.

Legend

  • E = Estimated
  • M = Missing
  • NA = Not Available
  • ‡ = Partner data that is not subject to review by the National Climate Archives
Date modified: